Location: Brede
(50.9167°N, 0.6000°E)
Time: 21:23:19
(UTC+00:00)

X-37B - Pass Details

Date: 04 November 2020
Orbit: 384 x 390 km, 45.0° (Epoch: 26 November)

Event Time Altitude Azimuth Distance (km) Brightness Sun altitude
Exits shadow 06:13:40 - 238° (WSW) 2,195 4.0 -7.0°
Reaches altitude 10° 06:15:46 10° 225° (SW) 1,413 3.1 -6.7°
Maximum altitude 06:18:25 24° 169° (S) 851 2.7 -6.3°
Drops below altitude 10° 06:21:03 10° 113° (ESE) 1,413 5.3 -5.9°
Sets 06:23:21 0° 99° (E) 2,267 6.8 -5.6°
